Tracking 29782 objects as of 13-Oct-2024
HD Live streaming from Space Station
objects crossing your sky now

COSMOS 1275 DEB

Track COSMOS 1275 DEB now!
10-day predictions


NORAD ID: 39961
Int'l Code: 1981-053PD
Perigee: 884.3 km
Apogee: 963.6 km
Inclination: 82.8 °
Period: 103.3 minutes
Semi major axis: 7294 km
RCS: 0.0155 m2 (small)
Launch date: April 25, 1981
Source: Commonwealth of Independent States (former USSR) (CIS)
Launch site: PLESETSK MISSILE AND SPACE COMPLEX (PKMTR)

Note: This is SATELLITE DEBRIS
Your satellite tracking list
Your tracking list is empty




NASA's NSSDC Master Catalog

Two Line Element Set (TLE):
1 39961U 81053NX  24284.88334698  .00011794  00000-0  88920-2 0  9995
2 39961  82.7709 335.6626 0054341 261.5777 223.1548 13.93377020265953
Source of the keplerian elements: AFSPC